Starlink 1497

operational
NORAD ID: 45781 Int'l Des: 2020-038 Owner: SPXS Country: US Constellation: starlink
LEOCIRCULAR

Über Starlink 1497

Beschreibung wird geladen...

Live-Position

3D-Globus wird geladen...

Nächste Überflüge

Höhenverlauf

Altitude vs Time

uPlot chart will show altitude changes over time

Zweizeiliger Elementsatz

1 45781U 20038BD 25307.77720189 .00156626 00000-0 22702-2 0 9997
2 45781 53.0392 346.0998 0006124 304.7390 55.3043 15.54822193298567
Epoch: 3. Nov. 2025 • Age: 9 hours

Aktueller Status

Höhe 406.2 km
Geschwindigkeit 7.67 km/s
Subsatellitenpunkt -6.40°S, 78.01°E
Startdatum 13. Juni 2020
Alter 5.3 years
Typ internet

Technische Details

Klassifizierung Payload
Masse 260.00 kg
Trockenmasse 248.00 kg
Gesamtmasse 260.00 kg
Länge 0.20 m
Durchmesser 2.80 m
Spannweite 9.00 m
Form Box + pan
Hersteller SPXS
Bus-Typ Starlink
Phasenstatus In Orbit
Besitzer/Staat SPXS/US

Große Konstellationen

Loading constellations...